Regional Weather Roundup
Issued by NWS

Home | Current Version | Previous Version | Graphics & Text | Print | Product List | Glossary On
Versions: 1 2 3 4 5 6 7 8 9 10 11 12 13 14 15 16 17 18 19 20 21 22 23 24 25 26 27 28 29 30 31 32 33 34 35 36 37 38 39 40 41 42 43 44 45 46 47 48 49 50
000
ASUS45 KSLC 041810
RWRUT

UTAH REGIONAL WEATHER ROUNDUP
NATIONAL WEATHER SERVICE SALT LAKE CITY UT
1200 PM MDT MON MAY 04 2015

UTZ001>011-023>025-041900-

NORTHERN UTAH

CITY           SKY/WX    TMP DP  RH WIND       PRES   REMARKS
BRIGHAM CITY   SUNNY     71  36  27 N6        29.96F
DUGWAY         PTSUNNY   72  37  28 SE5       29.95
HILL AFB       PTSUNNY   69  42  37 VRB5      29.96F
LOGAN          SUNNY     67  44  43 N6        29.96F
OGDEN          PTSUNNY   71  40  32 MISG      29.94F
PROVO AIRPORT  MOSUNNY   68  43  40 VRB6      29.96F
SALT LAKE CITY MOSUNNY   72  38  29 VRB3      29.93F
VERNAL         SUNNY     65  40  39 SE7       30.02F
WENDOVER       SUNNY     72  37  28 E10       29.93F
HEBER CITY     MOSUNNY   66  36  32 W3        29.98F
WEST JORDAN    SUNNY     75  46  35 SE6       29.96F

$$

UTZ012>022-026-027-041900-

SOUTHERN/CENTRAL UTAH

CITY           SKY/WX    TMP DP  RH WIND       PRES   REMARKS
BLANDING       MOSUNNY   64  39  38 S5        30.10F
BRYCE CANYON   CLOUDY    54  37  52 SE14G22   30.10S
CEDAR CITY     PTSUNNY   61  37  41 S9        30.00S
DELTA          SUNNY     69  35  28 CALM      29.96F
HANKSVILLE     PTSUNNY   63  48  59 CALM      30.03F
MILFORD        SUNNY     68  39  34 SW10      29.96F
MOAB/CYNLANDS  SUNNY     69  42  37 CALM      29.97F
PRICE          PTSUNNY   62  38  40 SE12      30.05S
ST GEORGE      PTCLDY    64  46  52 CALM      29.96S
KANAB          CLOUDY    66  37  34 SE7       30.02F

$$

REGIONAL REPORTS     COLORADO/ARIZONA

CITY           SKY/WX    TMP DP  RH WIND       PRES   REMARKS
CRAIG, CO      CLOUDY    60  41  49 S3        30.06F
GRAND JUNCTION MOSUNNY   68  42  38 CALM      29.98F
RIFLE          MOSUNNY   59  45  59 S3        30.04F
MONTROSE       MOSUNNY   66  36  32 NW5       30.02F
CORTEZ         PTSUNNY   66  36  32 SW14      30.03S
PAGE, AZ       PTSUNNY   71  39  31 N8        29.96F
GRAND CANYON   PTSUNNY   57  39  51 S9        30.06F
KINGMAN        CLOUDY    67  48  50 SE13      29.96S
FLAGSTAFF      CLOUDY    49  42  77 VRB3      30.08F

$$

REGIONAL REPORTS    NEVADA/IDAHO/WYOMING

CITY           SKY/WX    TMP DP  RH WIND       PRES   REMARKS
LAS VEGAS, NV  PTSUNNY   79  37  22 VRB7      29.83S
ELY            MOSUNNY   63  32  31 E8        29.99F
ELKO           SUNNY     69  36  29 SE5       29.95F
POCATELLO, ID  MOSUNNY   71  39  31 CALM      29.97F
BURLEY         SUNNY     72  37  28 NE8       29.92F
EVANSTON, WY   MOSUNNY   60  38  43 N6        30.07F
ROCK SPRINGS   SUNNY     59  38  45 N6        30.08F
KEMMERER       MOSUNNY   59  39  47 CALM      30.10F

$$



USA.gov is the U.S. government's official web portal to all federal, state and local government web resources and services.